Simultaneous Nadir Overpasses (SNOs) Predictions

Prediction of SNOs between METOP-A and TERRA Satellite Orbit:

Table of predicted SNOs for the next 14.0 days since TLE Epoch: 3/24/2018
Index Date (METOP-A) Time (METOP-A) Lat,Lon (METOP-A) SZA (METOP-A ) Date (TERRA) Time (TERRA) Lat,Lon (TERRA) SZA (TERRA ) Distance(km) Time Diff (sec)
1 03/25/2018 07:42:07 -81.19, -77.38 98.93 03/25/2018 07:43:11 -81.03, -72.68 98.56 82.78 64
2 03/25/2018 08:32:18 81.41, 101.55 82.41 03/25/2018 08:32:20 81.41, 101.41 82.39 2.40 2
3 03/25/2018 09:22:58 -81.41, -90.83 97.58 03/25/2018 09:21:47 -81.41, -91.01 97.63 3.01 71
4 03/28/2018 04:06:36 81.40, 167.72 81.31 03/28/2018 04:06:38 81.41, 167.85 81.32 2.34 2
5 03/28/2018 04:57:16 -81.41, -24.61 98.68 03/28/2018 04:56:05 -81.41, -24.55 98.70 1.17 71
6 03/30/2018 23:40:54 81.40,-125.73 80.25 03/30/2018 23:40:57 81.41,-125.68 80.27 1.10 3
7 03/31/2018 00:31:34 -81.41, 41.98 99.72 03/31/2018 00:30:24 -81.41, 41.93 99.76 0.97 70
8 04/02/2018 19:15:13 81.40, -59.59 79.17 04/02/2018 19:15:17 81.40, -59.59 79.16 0.87 4
9 04/02/2018 20:05:53 -81.41, 108.16 100.80 04/02/2018 20:04:44 -81.40, 108.04 100.86 2.30 69
10 04/05/2018 14:49:31 81.40, 6.93 78.13 04/05/2018 14:49:36 81.40, 6.90 78.13 0.69 5




NCC Satellite Simultaneous Nadir Overpasses (SNOs) Prediction Service
